Flag for Germany Weather past 2 weeks in Herzogenrath, North Rhine-Westphalia, Germany

Now
63 °F

Partly cloudy.


Feels Like: 63 °F
Forecast: 52 / 69 °F
Wind: 6 mph from Southwest

Location: Geilenkirchen Airport

Current Time: Sep 30, 2014 at 8:16:38 AM

Latest Report: Sep 30, 2014 at 7:50 AM


Visibility: N/A

Pressure: 30.24 "Hg

Humidity: 88%

Dew point: 59 °F

Location of HerzogenrathLocation

Historic Weather in Herzogenrath — Graph

°F

Herzogenrath temperature yesterday

Maximum temperature yesterday: 70 °F (at 10:50 AM)
Minimum temperature yesterday: 59 °F (at 5:50 AM)
Average temperature yesterday: 64 °F

Past Weeks' High & Low Weather Summary

 TemperatureHumidityPressure
High70 °F (Sep 27, 2:50 PM)100% (Sep 15, 7:50 AM)30.39 "Hg (Sep 15, 7:50 AM)
Low45 °F (Sep 23, 3:50 AM)0% (Sep 24, 10:50 PM)29.86 "Hg (Sep 24, 4:50 PM)
Average58 °F84%30.14 "Hg
* Reported Sep 15 7:50 AM — Sep 30 6:50 AM, Herzogenrath, Weather by CustomWeather, © 2014

Note: Actual official high and low records may vary slightly from our data, if they occured in-between our weather recording intervals... More about our weather records

Advertising

Herzogenrath weather history for previous 24 hours

 ConditionsComfort  
Time TempWeatherWind HumidityBarometerVisibility
6:50 AM
Sep 30
63 °FPartly cloudy.5 mph88%30.24 "HgN/A
5:50 AM63 °FClear.6 mph88%30.24 "Hg10 mi
4:50 AM61 °FClear.6 mph94%30.21 "Hg10 mi
3:50 AM61 °FClear.6 mph94%30.21 "Hg10 mi
2:50 AM61 °FClear.7 mph88%30.21 "Hg10 mi
1:50 AM61 °FClear.8 mph94%30.21 "Hg10 mi
12:50 AM63 °FClear.6 mph83%30.21 "Hg10 mi
11:50 PM
Sep 29
63 °FClear.6 mph83%30.21 "Hg10 mi
10:50 PM61 °FClear.3 mph88%30.21 "Hg10 mi
9:50 PM63 °FClear.2 mph88%30.21 "Hg10 mi
8:50 PM61 °FClear.5 mph94%30.21 "Hg10 mi
7:50 PM63 °FSunny.8 mph88%30.21 "Hg10 mi
6:50 PM63 °FPartly sunny.5 mph88%30.21 "HgN/A
5:50 PM64 °FLight rain. Partly sunny.5 mph88%30.21 "HgN/A
4:50 PM66 °FLight rain. Partly sunny.5 mph78%30.21 "HgN/A
3:50 PM68 °FBroken clouds.7 mph73%30.21 "HgN/A
2:50 PM68 °FLight rain. Broken clouds.9 mph88%30.21 "HgN/A
1:50 PM70 °FSunny.10 mph73%30.21 "Hg10 mi
12:50 PM70 °FSunny.7 mph69%30.21 "Hg10 mi
11:50 AM70 °FSunny.8 mph64%30.21 "Hg10 mi
10:50 AM70 °FSunny.8 mph64%30.18 "Hg10 mi
9:50 AM66 °FSunny.6 mph73%30.18 "Hg10 mi
8:50 AM63 °FSunny.5 mph77%30.18 "Hg10 mi
Weather by CustomWeather, © 2014

See weather overviewHow to use our weather pages